"Pseudo-MPEC" for P10V2Ff

Created 2019 Dec 5 8:07:21 UT using Find_Orb

Click here for an explanation of pseudo-MPECs

 
 Astrometry: 
     P10V2Ff  C2019 11 30##JHjcKVAstrometrywKH;5h+bpZr'4.HB(Cx(redacted;w+T$-F51
     P10V2Ff  C2019 11 30DgX!?]#clickZM#2hMl;TZIVWQhereSUYP/^4K(U^)tua/forg24F51
     P10V2Ff  C2019 11 30/_Z$moN#LYV[9`k1DY7hO0=explanation$KL'l8oUwPZjEbGKA#F51

Station data:
(F51) Pan-STARRS 1, Haleakala  (N20.707235 W156.255910)  US/Hawaii.
   Observers N. Primak, A. Schultz, S. Watters, J. Thiel, T. Goggia. Measurer
   PS1 Science Consortium. 1.8-m Ritchey-Chrétien + CCD.

Orbital elements:  P10V2Ff
   Perihelion 2019 Nov 26.509979 +/- 36.8 TT = 12:14:22 (JD 2458814.009979)
Epoch 2019 Nov 30.0 TT = JDT 2458817.5   Earth MOID: 0.3421   Ma: 0.0127
M   0.64348633 +/- 49               (J2000 ecliptic)          AutoNEOCP
n   0.18437893 +/- 0.375            Peri.  227.94164 +/- 120
a   3.05723284 +/- 4.14             Node   178.65203 +/- 37
e   0.5849743 +/- 0.233             Incl.   17.61038 +/- 28
P   5.35                   H 21.2   G  0.15   U 12.1  SR
q 1.26883014 +/- 0.341    Q 4.84563553 +/- 28.7
From 3 observations 2019 Nov. 30 (41.4 min); mean residual 0".14
Residuals in arcseconds: 
191130 F51  .02-  .09+    191130 F51  .06+  .26-    191130 F51  .01-  .20+    

Ephemerides (geocentric):
Date (UTC) HH   RA              Dec         delta   r     elong  mag " sig PA
---- -- -- --  -------------   -----------  ------ ------ -----  --- ---- ---
2019 12 05 08  01 21 20.269   -29 50 27.74  .55111 1.2730 108.6 22.3 5108 169
2019 12 05 09  01 21 27.683   -29 50 05.37  .55127 1.2730 108.5 22.3 5208 169
2019 12 05 10  01 21 35.098   -29 49 42.91  .55143 1.2731 108.5 22.3 5310 169
2019 12 05 11  01 21 42.513   -29 49 20.38  .55159 1.2731 108.5 22.3 5415 168
2019 12 05 12  01 21 49.929   -29 48 57.77  .55176 1.2732 108.5 22.3 5522 168
2019 12 05 13  01 21 57.345   -29 48 35.08  .55192 1.2732 108.5 22.3 5631 168
2019 12 05 14  01 22 04.762   -29 48 12.32  .55208 1.2732 108.5 22.3 5743 168
2019 12 05 15  01 22 12.180   -29 47 49.47  .55225 1.2733 108.5 22.3 5858 168
2019 12 05 16  01 22 19.598   -29 47 26.55  .55241 1.2733 108.5 22.3 5976 168
2019 12 05 17  01 22 27.017   -29 47 03.55  .55257 1.2734 108.5 22.3 6096 168
2019 12 05 18  01 22 34.436   -29 46 40.47  .55273 1.2734 108.5 22.3 6219 168
2019 12 05 19  01 22 41.856   -29 46 17.32  .55290 1.2734 108.5 22.3 6345 168
2019 12 05 20  01 22 49.276   -29 45 54.09  .55306 1.2735 108.4 22.3 6475 168
2019 12 05 21  01 22 56.697   -29 45 30.78  .55322 1.2735 108.4 22.3 6608 168
2019 12 05 22  01 23 04.118   -29 45 07.39  .55339 1.2736 108.4 22.3 6744 167
2019 12 05 23  01 23 11.540   -29 44 43.93  .55355 1.2736 108.4 22.3 6884 167
2019 12 06 00  01 23 18.962   -29 44 20.39  .55371 1.2737 108.4 22.3 7027 167
2019 12 06 01  01 23 26.385   -29 43 56.77  .55388 1.2737 108.4 22.3 7174 167
2019 12 06 02  01 23 33.809   -29 43 33.07  .55404 1.2737 108.4 22.3 7325 167
2019 12 06 03  01 23 41.232   -29 43 09.30  .55421 1.2738 108.4 22.3 7480 167
2019 12 06 04  01 23 48.657   -29 42 45.45  .55437 1.2738 108.4 22.3 7640 167
2019 12 06 05  01 23 56.082   -29 42 21.53  .55453 1.2739 108.4 22.3 7804 167
2019 12 06 06  01 24 03.507   -29 41 57.53  .55470 1.2739 108.4 22.3 7972 166
2019 12 06 07  01 24 10.933   -29 41 33.45  .55486 1.2740 108.3 22.3 8145 166
2019 12 06 08  01 24 18.359   -29 41 09.29  .55503 1.2740 108.3 22.3 8323 166
2019 12 06 09  01 24 25.786   -29 40 45.06  .55519 1.2740 108.3 22.3 8506 166
2019 12 06 10  01 24 33.213   -29 40 20.75  .55536 1.2741 108.3 22.3 8695 166
2019 12 06 11  01 24 40.641   -29 39 56.37  .55552 1.2741 108.3 22.3 8889 166
2019 12 06 12  01 24 48.069   -29 39 31.91  .55568 1.2742 108.3 22.3 9089 166
2019 12 06 13  01 24 55.497   -29 39 07.37  .55585 1.2742 108.3 22.3 9295 165
2019 12 06 14  01 25 02.926   -29 38 42.76  .55601 1.2743 108.3 22.3 9507 165
2019 12 06 15  01 25 10.356   -29 38 18.07  .55618 1.2743 108.3 22.3 9725 165
2019 12 06 16  01 25 17.786   -29 37 53.30  .55634 1.2744 108.3 22.3 9950 165
2019 12 06 17  01 25 25.216   -29 37 28.46  .55651 1.2744 108.3 22.3 170' 165
2019 12 06 18  01 25 32.647   -29 37 03.54  .55667 1.2744 108.3 22.3 174' 165
2019 12 06 19  01 25 40.078   -29 36 38.55  .55684 1.2745 108.2 22.3 178' 164
2019 12 06 20  01 25 47.509   -29 36 13.48  .55700 1.2745 108.2 22.3 182' 164
2019 12 06 21  01 25 54.941   -29 35 48.34  .55717 1.2746 108.2 22.3 186' 164
2019 12 06 22  01 26 02.374   -29 35 23.12  .55733 1.2746 108.2 22.3 191' 164
2019 12 06 23  01 26 09.806   -29 34 57.82  .55750 1.2747 108.2 22.3 196' 163
2019 12 07 00  01 26 17.239   -29 34 32.45  .55766 1.2747 108.2 22.3 200' 163
2019 12 07 01  01 26 24.673   -29 34 07.00  .55783 1.2748 108.2 22.3 205' 163
2019 12 07 02  01 26 32.107   -29 33 41.48  .55800 1.2748 108.2 22.3 210' 163
2019 12 07 03  01 26 39.541   -29 33 15.89  .55816 1.2749 108.2 22.3 216' 163
2019 12 07 04  01 26 46.976   -29 32 50.21  .55833 1.2749 108.2 22.3 221' 162
2019 12 07 05  01 26 54.411   -29 32 24.47  .55849 1.2750 108.2 22.3 227' 162
2019 12 07 06  01 27 01.846   -29 31 58.65  .55866 1.2750 108.2 22.3 233' 162
2019 12 07 07  01 27 09.282   -29 31 32.75  .55883 1.2751 108.1 22.3 239' 162